Location: Blackie
(50.6050°N, 113.6230°W)
Time: 09:56:31
(UTC+00:00)

ISS - Pass Details

Date: 08 December 2021
Orbit: 413 x 422 km, 51.6° (Epoch: 19 January)

Event Time Altitude Azimuth Distance (km) Brightness Sun altitude
Rises 01:27:22 0° 281° (W) 2,382 1.2 -17.5°
Reaches altitude 10° 01:30:11 10° 256° (WSW) 1,510 0.4 -18.0°
Maximum altitude 01:32:05 14° 222° (SW) 1,270 -0.6 -18.3°
Drops below altitude 10° 01:33:59 10° 187° (S) 1,501 -0.7 -18.5°
Enters shadow 01:37:09 -1° 160° (SSE) 2,494 0.1 -19.0°
